Ash Shuwayfat, Lebanon

9:46 AM EET on January 21, 2017 (GMT +0200)
Beirut

Weather History for OLBA - January, 2017

Change the Weather History Date:

Thursday, January 12, 2017

  Actual Average Record
Temperature  
Mean Temperature 58 °F -  
Max Temperature 67 °F 61 °F 80 °F (2003)
Min Temperature 48 °F 50 °F 41 °F (1998)
Degree Days  
Heating Degree Days 8    
Growing Degree Days 8 (Base 50)    
Moisture  
Dew Point 39 °F    
Average Humidity 50    
Maximum Humidity 63    
Minimum Humidity 25    
Precipitation  
Precipitation 0.04 in 0.22 in - ()
Sea Level Pressure  
Sea Level Pressure 30.20 in    
Wind  
Wind Speed 3 mph ()    
Max Wind Speed 6 mph    
Max Gust Speed -    
Visibility 6.0 miles    
Events      
Averages and records for this station are not official NWS values.
T = Trace of Precipitation, MM = Missing Value Source: Averaged Metar Reports

Daily Weather History Graph

Daily Weather History Graph

Search for Another Location

Airport or City:

Trip Planner

Search our weather history database for the weather conditions in past years. The results will help you decide how hot, cold, wet, or windy it might be!

Date:

Astronomy

Jan. 12, 2017 Rise Set
Actual Time 6:43 AM EET 4:49 PM EET
Civil Twilight 6:16 AM EET 5:16 PM EET
Nautical Twilight 5:45 AM EET 5:47 PM EET
Astronomical Twilight 5:15 AM EET 6:17 PM EET
Moon 5:02 PM EET (1/12) 6:18 AM EET (1/12)
Length of Visible Light 11h 00m
Length of Day
10h 06m
Full, 100% of the Moon is Illuminated
Jan 12
Full
Jan 12
Full
Jan 20
Last Quarter
Jan 28
New
Feb 4
First Quarter

Hourly Weather History & Observations

Time (EET) Temp. Dew Point Humidity Pressure Visibility Wind Dir Wind Speed Gust Speed Precip Events Conditions
12:00 AM 53.6 °F 37.4 °F 54% 30.30 in 6.2 mi East 4.6 mph - N/A   Scattered Clouds
1:00 AM 53.6 °F 33.8 °F 47% 30.27 in 6.2 mi ESE 4.6 mph - N/A   Scattered Clouds
2:00 AM 53 °F 38 °F 46% 30.25 in 5 mi Calm Calm - -   Scattered Clouds
2:00 AM 51.8 °F 33.8 °F 50% 30.27 in 6.2 mi East 4.6 mph - N/A   Scattered Clouds
3:00 AM 51.8 °F 33.8 °F 50% 30.27 in 6.2 mi East 4.6 mph - N/A   Scattered Clouds
4:00 AM 51.8 °F 32.0 °F 47% 30.24 in 6.2 mi East 5.8 mph - N/A   Scattered Clouds
5:00 AM 52 °F 36 °F 43% 30.21 in 5 mi Calm Calm - -   Scattered Clouds
5:00 AM 51.8 °F 32.0 °F 47% 30.24 in 6.2 mi East 5.8 mph - N/A   Scattered Clouds
6:00 AM 50.0 °F 32.0 °F 50% 30.24 in 6.2 mi East 3.5 mph - N/A   Scattered Clouds
7:00 AM 50.0 °F 32.0 °F 50% 30.24 in 6.2 mi East 4.6 mph - N/A   Scattered Clouds
8:00 AM 54 °F 35 °F 36% 30.20 in 5 mi Calm Calm - -   Scattered Clouds
8:00 AM 51.8 °F 32.0 °F 47% 30.24 in 6.2 mi ENE 3.5 mph - N/A   Scattered Clouds
9:00 AM 57.2 °F 33.8 °F 41% 30.24 in 6.2 mi Variable 2.3 mph - N/A   Scattered Clouds
10:00 AM 62.6 °F 35.6 °F 37% 30.21 in 6.2 mi Calm Calm - N/A   Scattered Clouds
11:00 AM 64 °F 37 °F 25% 30.19 in 5 mi Calm Calm - -   Scattered Clouds
11:00 AM 60.8 °F 35.6 °F 39% 30.21 in 6.2 mi West 5.8 mph - N/A   Scattered Clouds
12:00 PM 62.6 °F 41.0 °F 45% 30.21 in 6.2 mi West 4.6 mph - N/A   Partly Cloudy
1:00 PM 62.6 °F 44.6 °F 52% 30.18 in 6.2 mi WSW 5.8 mph - N/A   Partly Cloudy
2:00 PM 65 °F 47 °F 41% 30.13 in 5 mi Calm Calm - -   Scattered Clouds
2:00 PM 62.6 °F 46.4 °F 55% 30.15 in 6.2 mi West 4.6 mph - N/A   Partly Cloudy
3:00 PM 62.6 °F 48.2 °F 59% 30.15 in 6.2 mi WNW 5.8 mph - N/A   Partly Cloudy
4:00 PM 60.8 °F 46.4 °F 59% 30.15 in 6.2 mi West 5.8 mph - N/A   Partly Cloudy
5:00 PM 60 °F 47 °F 52% 30.14 in 6 mi Calm Calm - -   Clear
5:00 PM 60.8 °F 44.6 °F 55% 30.15 in 6.2 mi NW 3.5 mph - N/A   Partly Cloudy
6:00 PM 59.0 °F 41.0 °F 51% 30.18 in 6.2 mi North 4.6 mph - N/A   Partly Cloudy
7:00 PM 57.2 °F 42.8 °F 59% 30.18 in 6.2 mi North 3.5 mph - N/A   Partly Cloudy
8:00 PM 58 °F 46 °F 55% 30.15 in 6 mi Calm Calm - -  
8:00 PM 57.2 °F 44.6 °F 63% 30.18 in 6.2 mi ESE 4.6 mph - N/A   Partly Cloudy
9:00 PM 55.4 °F 42.8 °F 63% 30.18 in 6.2 mi ESE 4.6 mph - N/A   Partly Cloudy
10:00 PM 55.4 °F 42.8 °F 63% 30.18 in 6.2 mi East 4.6 mph - N/A   Partly Cloudy
11:00 PM 57 °F 45 °F 53% 30.12 in 6 mi Calm Calm - -   Mostly Cloudy
11:00 PM 55.4 °F 42.8 °F 63% 30.15 in 5.0 mi ESE 5.8 mph - N/A   Scattered Clouds